Time,TemperatureF,DewpointF,PressureIn,WindDirection,WindDirectionDegrees,WindSpeedMPH,WindSpeedGustMPH,Humidity,HourlyPrecipIn,Conditions,Clouds,dailyrainin,SoftwareType,DateUTC
2013-06-27 00:01:00,64.8,62.7,29.85,North,3,2.1,3.0,93,0.00,RA,OVC,0.00,WeatherDisplay:10.37,2013-06-27 04:01:00,
2013-06-27 00:02:00,64.8,62.4,29.85,North,3,1.3,3.5,92,0.00,RA,OVC,0.00,WeatherDisplay:10.37,2013-06-27 04:02:00,
2013-06-27 00:07:00,64.7,62.6,29.85,North,3,0.0,0.0,93,0.00,RA,OVC,0.00,WeatherDisplay:10.37,2013-06-27 04:07:00,
2013-06-27 00:12:00,64.6,61.6,29.86,North,3,0.7,2.3,90,0.00,CLR,OVC,0.00,WeatherDisplay:10.37,2013-06-27 04:12:00,
2013-06-27 00:17:00,64.5,61.5,29.86,North,3,0.4,3.5,90,0.00,CLR,OVC,0.00,WeatherDisplay:10.37,2013-06-27 04:17:00,
2013-06-27 00:22:00,64.7,61.7,29.86,North,3,0.2,1.0,90,0.00,CLR,OVC,0.00,WeatherDisplay:10.37,2013-06-27 04:22:00,
2013-06-27 00:27:00,64.6,61.6,29.86,North,3,0.9,2.3,90,0.00,CLR,OVC,0.00,WeatherDisplay:10.37,2013-06-27 04:27:00,
2013-06-27 00:32:00,64.7,61.7,29.86,North,3,0.0,0.0,90,0.00,CLR,OVC,0.00,WeatherDisplay:10.37,2013-06-27 04:32:00,
2013-06-27 00:37:00,64.8,61.8,29.86,North,3,0.0,0.0,90,0.00,CLR,OVC,0.00,WeatherDisplay:10.37,2013-06-27 04:37:00,
2013-06-27 00:42:00,64.8,61.8,29.86,North,3,0.7,2.3,90,0.00,CLR,OVC,0.00,WeatherDisplay:10.37,2013-06-27 04:42:00,
2013-06-27 00:47:00,64.9,61.9,29.85,North,3,0.0,0.0,90,0.00,CLR,OVC,0.00,WeatherDisplay:10.37,2013-06-27 04:47:00,
2013-06-27 00:52:00,65.0,62.0,29.86,North,3,0.0,0.0,90,0.00,CLR,OVC,0.00,WeatherDisplay:10.37,2013-06-27 04:52:00,
2013-06-27 00:57:00,64.8,61.5,29.86,North,3,0.8,1.2,89,0.00,CLR,OVC,0.00,WeatherDisplay:10.37,2013-06-27 04:57:00,
2013-06-27 01:02:00,64.6,61.6,29.86,North,3,0.1,2.3,90,0.00,CLR,OVC,0.00,WeatherDisplay:10.37,2013-06-27 05:02:00,
2013-06-27 01:07:00,64.6,61.6,29.86,North,3,0.0,1.2,90,0.00,CLR,OVC,0.00,WeatherDisplay:10.37,2013-06-27 05:07:00,
2013-06-27 01:12:00,64.5,61.8,29.86,North,3,0.5,1.2,91,0.00,CLR,OVC,0.00,WeatherDisplay:10.37,2013-06-27 05:12:00,
2013-06-27 01:17:00,64.2,61.5,29.85,North,3,2.3,3.5,91,0.00,CLR,OVC,0.00,WeatherDisplay:10.37,2013-06-27 05:17:00,
2013-06-27 01:22:00,64.1,61.7,29.85,North,3,0.3,1.2,92,0.00,CLR,OVC,0.00,WeatherDisplay:10.37,2013-06-27 05:22:00,
2013-06-27 01:27:00,64.1,61.4,29.85,North,3,0.5,3.5,91,0.00,CLR,OVC,0.00,WeatherDisplay:10.37,2013-06-27 05:27:00,
2013-06-27 01:32:00,64.1,61.4,29.85,North,3,1.5,3.5,91,0.00,CLR,OVC,0.00,WeatherDisplay:10.37,2013-06-27 05:32:00,
2013-06-27 01:37:00,63.7,60.7,29.85,North,4,1.1,3.5,90,0.00,CLR,OVC,0.00,WeatherDisplay:10.37,2013-06-27 05:37:00,
2013-06-27 01:42:00,63.6,60.3,29.86,North,4,0.8,2.3,89,0.00,CLR,OVC,0.00,WeatherDisplay:10.37,2013-06-27 05:42:00,
2013-06-27 01:47:00,63.6,60.9,29.85,North,4,0.2,1.2,91,0.00,CLR,OVC,0.00,WeatherDisplay:10.37,2013-06-27 05:47:00,
2013-06-27 01:52:00,63.5,61.4,29.85,North,5,1.6,3.5,93,0.00,CLR,OVC,0.00,WeatherDisplay:10.37,2013-06-27 05:52:00,
2013-06-27 01:57:00,63.4,60.7,29.86,North,5,1.0,1.2,91,0.00,CLR,OVC,0.00,WeatherDisplay:10.37,2013-06-27 05:57:00,
2013-06-27 02:02:00,63.4,60.4,29.86,NE,45,3.5,4.0,90,0.00,CLR,OVC,0.00,WeatherDisplay:10.37,2013-06-27 06:02:00,
2013-06-27 02:07:00,63.2,60.5,29.85,NW,325,1.0,3.5,91,0.00,CLR,OVC,0.00,WeatherDisplay:10.37,2013-06-27 06:07:00,
2013-06-27 02:12:00,63.3,60.6,29.86,NW,325,0.7,3.5,91,0.00,CLR,OVC,0.00,WeatherDisplay:10.37,2013-06-27 06:12:00,
2013-06-27 02:17:00,63.1,60.4,29.86,NW,325,0.5,3.5,91,0.00,CLR,OVC,0.00,WeatherDisplay:10.37,2013-06-27 06:17:00,
2013-06-27 02:22:00,63.2,60.5,29.85,NNW,328,0.1,0.0,91,0.00,CLR,OVC,0.00,WeatherDisplay:10.37,2013-06-27 06:22:00,
2013-06-27 02:27:00,63.0,60.3,29.85,NNW,328,1.5,3.5,91,0.00,CLR,OVC,0.00,WeatherDisplay:10.37,2013-06-27 06:27:00,
2013-06-27 02:32:00,62.8,60.1,29.85,NNW,338,0.6,2.3,91,0.00,CLR,OVC,0.00,WeatherDisplay:10.37,2013-06-27 06:32:00,
2013-06-27 02:37:00,62.8,60.4,29.85,NNW,339,1.9,3.5,92,0.00,CLR,OVC,0.00,WeatherDisplay:10.37,2013-06-27 06:37:00,
2013-06-27 02:42:00,62.8,60.4,29.84,North,5,0.0,0.0,92,0.00,CLR,OVC,0.00,WeatherDisplay:10.37,2013-06-27 06:42:00,
2013-06-27 02:47:00,62.8,60.4,29.84,North,5,1.0,3.5,92,0.00,CLR,OVC,0.00,WeatherDisplay:10.37,2013-06-27 06:47:00,
2013-06-27 02:52:00,62.6,59.9,29.84,North,5,0.9,3.5,91,0.00,CLR,OVC,0.00,WeatherDisplay:10.37,2013-06-27 06:52:00,
2013-06-27 02:57:00,62.7,60.0,29.84,East,97,2.3,5.8,91,0.00,CLR,OVC,0.00,WeatherDisplay:10.37,2013-06-27 06:57:00,
2013-06-27 03:02:00,62.6,59.9,29.84,East,95,1.0,3.5,91,0.00,CLR,OVC,0.00,WeatherDisplay:10.37,2013-06-27 07:02:00,
2013-06-27 03:07:00,62.5,59.8,29.85,East,95,0.4,2.3,91,0.00,CLR,OVC,0.00,WeatherDisplay:10.37,2013-06-27 07:07:00,
2013-06-27 03:12:00,62.6,59.9,29.84,East,95,1.2,2.3,91,0.00,CLR,OVC,0.00,WeatherDisplay:10.37,2013-06-27 07:12:00,
2013-06-27 03:17:00,62.5,59.8,29.84,East,94,0.3,1.2,91,0.00,CLR,OVC,0.00,WeatherDisplay:10.37,2013-06-27 07:17:00,
2013-06-27 03:22:00,62.4,59.7,29.84,East,94,1.4,3.5,91,0.00,CLR,OVC,0.00,WeatherDisplay:10.37,2013-06-27 07:22:00,
2013-06-27 03:27:00,62.5,59.8,29.85,East,95,0.0,0.0,91,0.00,CLR,OVC,0.00,WeatherDisplay:10.37,2013-06-27 07:27:00,
2013-06-27 03:32:00,62.3,59.6,29.84,East,79,0.4,1.2,91,0.00,CLR,OVC,0.00,WeatherDisplay:10.37,2013-06-27 07:32:00,
2013-06-27 03:37:00,62.2,59.5,29.84,East,80,2.4,3.5,91,0.00,CLR,OVC,0.00,WeatherDisplay:10.37,2013-06-27 07:37:00,
2013-06-27 03:42:00,62.2,59.2,29.85,East,81,0.1,2.3,90,0.00,CLR,OVC,0.00,WeatherDisplay:10.37,2013-06-27 07:42:00,
2013-06-27 03:47:00,62.2,59.5,29.85,East,81,0.0,0.0,91,0.00,CLR,OVC,0.00,WeatherDisplay:10.37,2013-06-27 07:47:00,
2013-06-27 03:52:00,62.3,59.6,29.85,East,81,1.1,3.5,91,0.00,CLR,OVC,0.00,WeatherDisplay:10.37,2013-06-27 07:52:00,
2013-06-27 03:57:00,62.3,59.6,29.85,East,81,0.5,3.5,91,0.00,CLR,OVC,0.00,WeatherDisplay:10.37,2013-06-27 07:57:00,
2013-06-27 04:02:00,62.2,59.8,29.85,East,81,0.4,2.3,92,0.00,CLR,OVC,0.00,WeatherDisplay:10.37,2013-06-27 08:02:00,
2013-06-27 04:07:00,62.0,59.6,29.85,East,81,0.0,0.0,92,0.00,CLR,OVC,0.00,WeatherDisplay:10.37,2013-06-27 08:07:00,
2013-06-27 04:12:00,62.2,60.2,29.85,East,81,0.0,0.0,93,0.00,CLR,OVC,0.00,WeatherDisplay:10.37,2013-06-27 08:12:00,
2013-06-27 04:17:00,62.2,59.8,29.84,East,81,0.0,0.0,92,0.00,CLR,OVC,0.00,WeatherDisplay:10.37,2013-06-27 08:17:00,
2013-06-27 04:22:00,62.1,59.7,29.84,East,82,1.2,2.3,92,0.00,CLR,OVC,0.00,WeatherDisplay:10.37,2013-06-27 08:22:00,
2013-06-27 04:27:00,62.0,59.6,29.83,East,82,0.0,0.0,92,0.00,CLR,OVC,0.00,WeatherDisplay:10.37,2013-06-27 08:27:00,
2013-06-27 04:32:00,62.0,59.6,29.83,East,82,0.0,1.2,92,0.00,CLR,OVC,0.00,WeatherDisplay:10.37,2013-06-27 08:32:00,
2013-06-27 04:37:00,61.9,59.9,29.83,ENE,68,1.7,3.5,93,0.00,CLR,OVC,0.00,WeatherDisplay:10.37,2013-06-27 08:37:00,
2013-06-27 04:42:00,62.0,60.0,29.84,ENE,69,0.8,3.5,93,0.00,CLR,OVC,0.00,WeatherDisplay:10.37,2013-06-27 08:42:00,
2013-06-27 04:47:00,61.9,59.9,29.84,ENE,70,0.3,3.5,93,0.00,CLR,OVC,0.00,WeatherDisplay:10.37,2013-06-27 08:47:00,
2013-06-27 04:52:00,61.9,59.9,29.84,ENE,69,0.1,1.2,93,0.00,CLR,OVC,0.00,WeatherDisplay:10.37,2013-06-27 08:52:00,
2013-06-27 04:57:00,61.9,59.9,29.84,ENE,74,0.8,2.3,93,0.00,CLR,OVC,0.00,WeatherDisplay:10.37,2013-06-27 08:57:00,
2013-06-27 05:03:00,61.9,59.5,29.84,ENE,74,1.7,2.3,92,0.00,CLR,OVC,0.00,WeatherDisplay:10.37,2013-06-27 09:03:00,
2013-06-27 05:08:00,61.9,59.9,29.84,NE,53,0.8,2.3,93,0.00,CLR,OVC,0.00,WeatherDisplay:10.37,2013-06-27 09:08:00,
2013-06-27 05:13:00,61.8,59.8,29.84,NE,53,0.0,3.5,93,0.00,CLR,OVC,0.00,WeatherDisplay:10.37,2013-06-27 09:13:00,
2013-06-27 05:18:00,61.9,59.9,29.84,NE,53,1.0,2.3,93,0.00,CLR,OVC,0.00,WeatherDisplay:10.37,2013-06-27 09:18:00,
2013-06-27 05:23:00,61.8,59.8,29.84,NNW,334,0.5,3.5,93,0.00,CLR,OVC,0.00,WeatherDisplay:10.37,2013-06-27 09:23:00,
2013-06-27 05:28:00,61.9,59.9,29.84,NE,51,1.2,3.5,93,0.00,CLR,OVC,0.00,WeatherDisplay:10.37,2013-06-27 09:28:00,
2013-06-27 05:33:00,61.7,59.7,29.84,NE,50,1.2,2.3,93,0.00,CLR,OVC,0.00,WeatherDisplay:10.37,2013-06-27 09:33:00,
2013-06-27 05:38:00,61.8,60.1,29.84,NE,51,0.9,1.2,94,0.00,CLR,OVC,0.00,WeatherDisplay:10.37,2013-06-27 09:38:00,
2013-06-27 05:43:00,61.6,59.9,29.84,NE,51,1.9,3.5,94,0.00,CLR,OVC,0.00,WeatherDisplay:10.37,2013-06-27 09:43:00,
2013-06-27 05:48:00,61.6,60.2,29.85,NE,52,1.9,3.5,95,0.00,CLR,OVC,0.00,WeatherDisplay:10.37,2013-06-27 09:48:00,
2013-06-27 05:53:00,61.8,60.4,29.85,NE,51,0.0,0.0,95,0.00,CLR,OVC,0.00,WeatherDisplay:10.37,2013-06-27 09:53:00,
2013-06-27 05:58:00,61.9,60.2,29.86,NE,52,0.2,1.2,94,0.00,CLR,OVC,0.00,WeatherDisplay:10.37,2013-06-27 09:58:00,
2013-06-27 06:03:00,62.2,60.8,29.87,NE,52,0.1,2.0,95,0.00,CLR,OVC,0.00,WeatherDisplay:10.37,2013-06-27 10:03:00,
2013-06-27 06:08:00,62.1,60.4,29.87,NE,52,0.4,3.5,94,0.00,CLR,OVC,0.00,WeatherDisplay:10.37,2013-06-27 10:08:00,
2013-06-27 06:13:00,62.1,60.4,29.86,ENE,65,0.2,2.3,94,0.00,CLR,OVC,0.00,WeatherDisplay:10.37,2013-06-27 10:13:00,
2013-06-27 06:18:00,62.2,60.5,29.87,East,82,3.5,3.5,94,0.00,CLR,OVC,0.00,WeatherDisplay:10.37,2013-06-27 10:18:00,
2013-06-27 06:23:00,62.2,60.5,29.87,East,82,0.0,2.3,94,0.00,CLR,OVC,0.00,WeatherDisplay:10.37,2013-06-27 10:23:00,
2013-06-27 06:28:00,62.4,60.7,29.88,East,82,0.0,0.0,94,0.00,CLR,OVC,0.00,WeatherDisplay:10.37,2013-06-27 10:28:00,
2013-06-27 06:33:00,62.3,60.6,29.87,East,82,0.0,0.0,94,0.00,CLR,OVC,0.00,WeatherDisplay:10.37,2013-06-27 10:33:00,
2013-06-27 06:38:00,62.3,60.6,29.88,East,82,0.3,3.5,94,0.00,CLR,OVC,0.00,WeatherDisplay:10.37,2013-06-27 10:38:00,
2013-06-27 06:43:00,62.4,60.9,29.88,East,82,2.3,3.5,95,0.00,CLR,OVC,0.00,WeatherDisplay:10.37,2013-06-27 10:43:00,
2013-06-27 06:48:00,62.4,60.9,29.88,East,82,1.5,2.3,95,0.00,CLR,OVC,0.00,WeatherDisplay:10.37,2013-06-27 10:48:00,
2013-06-27 06:53:00,62.5,61.0,29.88,East,82,0.1,0.0,95,0.00,CLR,OVC,0.00,WeatherDisplay:10.37,2013-06-27 10:53:00,
2013-06-27 06:58:00,62.5,61.0,29.88,East,82,2.1,3.5,95,0.00,CLR,OVC,0.00,WeatherDisplay:10.37,2013-06-27 10:58:00,
2013-06-27 07:03:00,62.3,60.8,29.88,East,82,0.4,3.5,95,0.00,CLR,OVC,0.00,WeatherDisplay:10.37,2013-06-27 11:03:00,
2013-06-27 07:08:00,62.4,60.9,29.89,East,82,0.0,0.0,95,0.00,CLR,OVC,0.00,WeatherDisplay:10.37,2013-06-27 11:08:00,
2013-06-27 07:13:00,62.4,60.9,29.88,North,5,0.0,0.0,95,0.00,CLR,OVC,0.00,WeatherDisplay:10.37,2013-06-27 11:13:00,
2013-06-27 07:18:00,62.5,61.0,29.88,North,5,0.0,0.0,95,0.00,CLR,OVC,0.00,WeatherDisplay:10.37,2013-06-27 11:18:00,
2013-06-27 07:23:00,62.6,61.1,29.88,North,5,0.0,0.0,95,0.00,CLR,OVC,0.00,WeatherDisplay:10.37,2013-06-27 11:23:00,
2013-06-27 07:28:00,63.0,61.5,29.88,North,5,0.0,2.3,95,0.00,CLR,OVC,0.00,WeatherDisplay:10.37,2013-06-27 11:28:00,
2013-06-27 07:33:00,63.0,61.2,29.88,North,6,0.0,2.3,94,0.00,CLR,OVC,0.00,WeatherDisplay:10.37,2013-06-27 11:33:00,
2013-06-27 07:38:00,63.1,61.6,29.88,North,6,0.0,0.0,95,0.00,CLR,OVC,0.00,WeatherDisplay:10.37,2013-06-27 11:38:00,
2013-06-27 07:43:00,63.4,61.6,29.88,North,6,0.0,0.0,94,0.00,CLR,OVC,0.00,WeatherDisplay:10.37,2013-06-27 11:43:00,
2013-06-27 07:48:00,63.5,61.7,29.87,North,6,0.0,0.0,94,0.00,CLR,OVC,0.00,WeatherDisplay:10.37,2013-06-27 11:48:00,
2013-06-27 07:53:00,63.5,61.7,29.87,North,6,0.0,2.3,94,0.00,CLR,OVC,0.00,WeatherDisplay:10.37,2013-06-27 11:53:00,
2013-06-27 07:58:00,63.8,61.7,29.86,North,6,1.5,2.3,93,0.00,CLR,OVC,0.00,WeatherDisplay:10.37,2013-06-27 11:58:00,
2013-06-27 08:03:00,63.9,62.1,29.87,NE,54,1.4,3.5,94,0.00,CLR,OVC,0.00,WeatherDisplay:10.37,2013-06-27 12:03:00,
2013-06-27 08:08:00,64.2,61.8,29.86,NE,54,0.0,0.0,92,0.00,CLR,OVC,0.00,WeatherDisplay:10.37,2013-06-27 12:08:00,
2013-06-27 08:13:00,64.4,62.0,29.86,NE,54,0.2,2.3,92,0.00,CLR,OVC,0.00,WeatherDisplay:10.37,2013-06-27 12:13:00,
2013-06-27 08:18:00,64.7,62.0,29.86,NE,55,1.9,3.5,91,0.00,CLR,OVC,0.00,WeatherDisplay:10.37,2013-06-27 12:18:00,
2013-06-27 08:23:00,64.5,61.8,29.87,NE,55,1.7,3.5,91,0.00,CLR,OVC,0.00,WeatherDisplay:10.37,2013-06-27 12:23:00,
2013-06-27 08:28:00,64.6,61.9,29.87,NE,55,1.3,2.3,91,0.00,CLR,OVC,0.00,WeatherDisplay:10.37,2013-06-27 12:28:00,
2013-06-27 08:33:00,64.8,62.4,29.87,NE,55,0.0,0.0,92,0.00,CLR,OVC,0.00,WeatherDisplay:10.37,2013-06-27 12:33:00,
2013-06-27 08:38:00,64.9,61.9,29.87,NE,55,0.0,0.0,90,0.00,CLR,OVC,0.00,WeatherDisplay:10.37,2013-06-27 12:38:00,
2013-06-27 08:43:00,64.8,62.1,29.87,NE,55,0.0,0.0,91,0.00,CLR,OVC,0.00,WeatherDisplay:10.37,2013-06-27 12:43:00,
2013-06-27 08:48:00,65.2,62.5,29.86,NE,55,0.0,0.0,91,0.00,CLR,OVC,0.00,WeatherDisplay:10.37,2013-06-27 12:48:00,
2013-06-27 08:53:00,65.6,62.6,29.87,NE,55,0.0,0.0,90,0.00,CLR,OVC,0.00,WeatherDisplay:10.37,2013-06-27 12:53:00,
2013-06-27 08:58:00,65.8,62.8,29.87,NE,55,0.0,0.0,90,0.00,CLR,OVC,0.00,WeatherDisplay:10.37,2013-06-27 12:58:00,
2013-06-27 09:03:00,65.8,62.5,29.86,NE,55,0.0,0.0,89,0.00,CLR,OVC,0.00,WeatherDisplay:10.37,2013-06-27 13:03:00,
2013-06-27 09:08:00,66.2,63.2,29.86,NE,55,0.0,0.0,90,0.00,CLR,OVC,0.00,WeatherDisplay:10.37,2013-06-27 13:08:00,
2013-06-27 09:13:00,66.6,62.9,29.86,NE,55,1.0,3.5,88,0.00,CLR,OVC,0.00,WeatherDisplay:10.37,2013-06-27 13:13:00,
2013-06-27 09:18:00,66.6,62.9,29.86,NE,55,3.0,3.5,88,0.00,CLR,OVC,0.00,WeatherDisplay:10.37,2013-06-27 13:18:00,
2013-06-27 09:23:00,66.4,62.4,29.86,NE,55,1.1,3.5,87,0.00,CLR,OVC,0.00,WeatherDisplay:10.37,2013-06-27 13:23:00,
2013-06-27 09:28:00,66.5,63.2,29.86,NE,55,0.3,1.2,89,0.00,CLR,OVC,0.00,WeatherDisplay:10.37,2013-06-27 13:28:00,
2013-06-27 09:33:00,66.7,63.4,29.85,NE,55,0.9,2.3,89,0.00,CLR,OVC,0.00,WeatherDisplay:10.37,2013-06-27 13:33:00,
2013-06-27 09:38:00,66.7,63.0,29.85,NE,55,2.2,3.5,88,0.00,CLR,OVC,0.00,WeatherDisplay:10.37,2013-06-27 13:38:00,
2013-06-27 09:43:00,66.6,63.3,29.85,NE,55,0.4,2.3,89,0.00,CLR,OVC,0.00,WeatherDisplay:10.37,2013-06-27 13:43:00,
2013-06-27 09:48:00,66.8,63.1,29.86,ENE,64,1.6,3.5,88,0.00,CLR,OVC,0.00,WeatherDisplay:10.37,2013-06-27 13:48:00,
2013-06-27 09:53:00,66.9,63.2,29.85,ENE,64,0.1,1.2,88,0.00,CLR,OVC,0.00,WeatherDisplay:10.37,2013-06-27 13:53:00,
2013-06-27 09:58:00,67.3,63.6,29.85,ENE,64,1.1,2.3,88,0.00,CLR,OVC,0.00,WeatherDisplay:10.37,2013-06-27 13:58:00,
2013-06-27 10:03:00,67.6,63.9,29.85,ENE,64,0.1,2.3,88,0.00,CLR,OVC,0.00,WeatherDisplay:10.37,2013-06-27 14:03:00,
2013-06-27 10:08:00,67.6,63.6,29.86,ENE,64,2.4,4.0,87,0.00,CLR,OVC,0.00,WeatherDisplay:10.37,2013-06-27 14:08:00,
2013-06-27 10:13:00,67.4,63.4,29.86,ENE,64,0.1,1.2,87,0.00,CLR,OVC,0.00,WeatherDisplay:10.37,2013-06-27 14:13:00,
2013-06-27 10:18:00,67.8,63.8,29.85,ENE,64,1.6,3.5,87,0.00,CLR,OVC,0.00,WeatherDisplay:10.37,2013-06-27 14:18:00,
2013-06-27 10:23:00,68.0,64.0,29.85,ENE,64,0.6,1.2,87,0.00,CLR,OVC,0.00,WeatherDisplay:10.37,2013-06-27 14:23:00,
2013-06-27 10:28:00,68.1,64.1,29.85,ESE,107,0.8,3.5,87,0.01,RA,OVC,0.01,WeatherDisplay:10.37,2013-06-27 14:28:00,
2013-06-27 10:33:00,68.1,63.8,29.85,ESE,107,1.6,3.5,86,0.01,RA,OVC,0.01,WeatherDisplay:10.37,2013-06-27 14:33:00,
2013-06-27 10:38:00,68.1,63.8,29.85,ESE,103,2.1,3.5,86,0.01,CLR,OVC,0.01,WeatherDisplay:10.37,2013-06-27 14:38:00,
2013-06-27 10:43:00,67.9,63.9,29.85,ESE,103,0.3,1.2,87,0.01,CLR,OVC,0.01,WeatherDisplay:10.37,2013-06-27 14:43:00,
2013-06-27 10:48:00,68.0,64.0,29.86,ESE,103,0.4,1.2,87,0.01,CLR,OVC,0.01,WeatherDisplay:10.37,2013-06-27 14:48:00,
2013-06-27 10:53:00,67.8,64.1,29.85,ESE,103,0.0,1.2,88,0.01,CLR,OVC,0.01,WeatherDisplay:10.37,2013-06-27 14:53:00,
2013-06-27 10:58:00,68.1,64.1,29.85,ESE,103,1.9,3.5,87,0.01,CLR,OVC,0.01,WeatherDisplay:10.37,2013-06-27 14:58:00,
2013-06-27 11:03:00,67.8,64.1,29.85,ESE,103,0.1,2.3,88,0.01,CLR,OVC,0.01,WeatherDisplay:10.37,2013-06-27 15:03:00,
2013-06-27 11:09:00,68.2,64.2,29.85,ESE,103,0.5,2.3,87,0.01,CLR,OVC,0.01,WeatherDisplay:10.37,2013-06-27 15:09:00,
2013-06-27 11:14:00,68.1,64.4,29.85,ESE,103,0.0,0.0,88,0.01,CLR,OVC,0.01,WeatherDisplay:10.37,2013-06-27 15:14:00,
2013-06-27 11:19:00,68.6,64.6,29.85,ESE,102,3.2,3.5,87,0.01,CLR,OVC,0.01,WeatherDisplay:10.37,2013-06-27 15:19:00,
2013-06-27 11:24:00,68.6,64.6,29.85,East,85,1.5,2.3,87,0.01,CLR,OVC,0.01,WeatherDisplay:10.37,2013-06-27 15:24:00,
2013-06-27 11:29:00,68.4,64.4,29.85,East,85,0.6,1.2,87,0.00,CLR,OVC,0.01,WeatherDisplay:10.37,2013-06-27 15:29:00,
2013-06-27 11:34:00,68.6,64.6,29.85,East,86,1.1,3.5,87,0.00,CLR,OVC,0.01,WeatherDisplay:10.37,2013-06-27 15:34:00,
2013-06-27 11:39:00,69.1,65.4,29.85,East,86,0.0,0.0,88,0.00,CLR,OVC,0.01,WeatherDisplay:10.37,2013-06-27 15:39:00,
2013-06-27 11:44:00,69.3,64.9,29.85,East,86,1.0,2.3,86,0.00,CLR,OVC,0.01,WeatherDisplay:10.37,2013-06-27 15:44:00,
2013-06-27 11:49:00,69.5,65.5,29.84,ENE,65,0.9,2.3,87,0.00,CLR,OVC,0.01,WeatherDisplay:10.37,2013-06-27 15:49:00,
2013-06-27 11:54:00,69.4,65.0,29.84,ENE,65,1.2,3.5,86,0.00,CLR,OVC,0.01,WeatherDisplay:10.37,2013-06-27 15:54:00,
2013-06-27 11:59:00,70.0,66.0,29.83,ENE,66,0.4,2.3,87,0.00,CLR,OVC,0.01,WeatherDisplay:10.37,2013-06-27 15:59:00,
2013-06-27 12:04:00,70.9,65.8,29.83,ENE,66,0.3,2.3,84,0.00,CLR,OVC,0.01,WeatherDisplay:10.37,2013-06-27 16:04:00,
2013-06-27 12:09:00,71.2,64.7,29.84,ENE,66,1.2,3.5,80,0.00,CLR,OVC,0.01,WeatherDisplay:10.37,2013-06-27 16:09:00,
2013-06-27 12:14:00,70.6,64.1,29.83,ENE,65,1.3,2.3,80,0.00,CLR,OVC,0.01,WeatherDisplay:10.37,2013-06-27 16:14:00,
2013-06-27 12:19:00,70.6,64.8,29.83,ENE,69,0.3,2.3,82,0.00,CLR,OVC,0.01,WeatherDisplay:10.37,2013-06-27 16:19:00,
2013-06-27 12:24:00,70.8,65.0,29.83,ENE,68,0.0,0.0,82,0.00,CLR,OVC,0.01,WeatherDisplay:10.37,2013-06-27 16:24:00,
2013-06-27 12:29:00,71.0,64.5,29.84,ENE,68,0.5,1.2,80,0.00,CLR,OVC,0.01,WeatherDisplay:10.37,2013-06-27 16:29:00,
2013-06-27 12:34:00,70.9,64.8,29.84,ENE,68,1.2,2.3,81,0.00,CLR,OVC,0.01,WeatherDisplay:10.37,2013-06-27 16:34:00,
2013-06-27 12:39:00,70.6,64.1,29.84,ENE,68,1.9,3.5,80,0.00,CLR,OVC,0.01,WeatherDisplay:10.37,2013-06-27 16:39:00,
2013-06-27 12:44:00,70.7,64.9,29.84,ENE,68,1.0,2.3,82,0.00,CLR,OVC,0.01,WeatherDisplay:10.37,2013-06-27 16:44:00,
2013-06-27 12:49:00,71.2,64.7,29.84,ENE,68,0.3,3.0,80,0.00,CLR,OVC,0.01,WeatherDisplay:10.37,2013-06-27 16:49:00,
2013-06-27 12:54:00,71.5,64.6,29.83,ENE,67,0.5,2.3,79,0.00,CLR,OVC,0.01,WeatherDisplay:10.37,2013-06-27 16:54:00,
2013-06-27 12:59:00,71.5,65.0,29.83,ESE,115,2.6,5.8,80,0.00,CLR,OVC,0.01,WeatherDisplay:10.37,2013-06-27 16:59:00,
2013-06-27 13:04:00,71.5,65.4,29.83,ESE,114,0.3,2.3,81,0.00,CLR,OVC,0.01,WeatherDisplay:10.37,2013-06-27 17:04:00,
2013-06-27 13:09:00,71.3,65.2,29.83,ENE,68,1.5,3.5,81,0.00,CLR,OVC,0.01,WeatherDisplay:10.37,2013-06-27 17:09:00,
2013-06-27 13:14:00,71.1,65.3,29.83,ENE,68,0.4,3.5,82,0.00,CLR,OVC,0.01,WeatherDisplay:10.37,2013-06-27 17:14:00,
2013-06-27 13:19:00,71.0,65.2,29.83,ENE,68,0.2,2.3,82,0.00,CLR,OVC,0.01,WeatherDisplay:10.37,2013-06-27 17:19:00,
2013-06-27 13:24:00,71.3,65.9,29.83,ENE,68,0.1,2.3,83,0.00,CLR,OVC,0.01,WeatherDisplay:10.37,2013-06-27 17:24:00,
2013-06-27 13:29:00,71.3,65.5,29.83,ENE,68,1.0,3.5,82,0.00,CLR,OVC,0.01,WeatherDisplay:10.37,2013-06-27 17:29:00,
2013-06-27 13:34:00,71.2,65.4,29.83,NNE,22,1.2,3.5,82,0.00,CLR,OVC,0.01,WeatherDisplay:10.37,2013-06-27 17:34:00,
2013-06-27 13:39:00,71.0,65.2,29.83,NE,36,1.6,3.5,82,0.00,CLR,OVC,0.01,WeatherDisplay:10.37,2013-06-27 17:39:00,
2013-06-27 13:44:00,70.4,64.6,29.83,North,5,2.2,3.5,82,0.00,CLR,OVC,0.01,WeatherDisplay:10.37,2013-06-27 17:44:00,
2013-06-27 13:49:00,70.1,64.3,29.83,NE,42,1.4,3.5,82,0.00,CLR,OVC,0.01,WeatherDisplay:10.37,2013-06-27 17:49:00,
2013-06-27 13:54:00,69.5,64.1,29.83,NE,43,1.3,3.5,83,0.00,CLR,OVC,0.01,WeatherDisplay:10.37,2013-06-27 17:54:00,
2013-06-27 13:59:00,69.5,64.1,29.83,ENE,57,2.9,6.9,83,0.00,CLR,OVC,0.01,WeatherDisplay:10.37,2013-06-27 17:59:00,
2013-06-27 14:04:00,69.8,64.1,29.82,ENE,68,1.5,4.6,82,0.00,CLR,OVC,0.01,WeatherDisplay:10.37,2013-06-27 18:04:00,
2013-06-27 14:09:00,69.8,64.1,29.82,ENE,74,1.3,5.8,82,0.00,CLR,OVC,0.01,WeatherDisplay:10.37,2013-06-27 18:09:00,
2013-06-27 14:14:00,69.9,63.8,29.83,East,85,3.3,6.9,81,0.00,CLR,OVC,0.01,WeatherDisplay:10.37,2013-06-27 18:14:00,
2013-06-27 14:19:00,69.7,63.6,29.82,ENE,59,2.8,3.5,81,0.00,CLR,OVC,0.01,WeatherDisplay:10.37,2013-06-27 18:19:00,
2013-06-27 14:24:00,69.6,63.5,29.82,East,93,2.0,3.5,81,0.00,CLR,OVC,0.01,WeatherDisplay:10.37,2013-06-27 18:24:00,
2013-06-27 14:29:00,69.1,63.0,29.82,East,91,2.7,4.6,81,0.00,CLR,OVC,0.01,WeatherDisplay:10.37,2013-06-27 18:29:00,
2013-06-27 14:34:00,68.5,62.8,29.83,NE,54,2.3,4.6,82,0.00,CLR,OVC,0.01,WeatherDisplay:10.37,2013-06-27 18:34:00,
2013-06-27 14:39:00,68.4,63.0,29.83,NE,37,2.5,3.5,83,0.00,CLR,OVC,0.01,WeatherDisplay:10.37,2013-06-27 18:39:00,
2013-06-27 14:44:00,68.2,62.8,29.83,NE,37,1.1,1.2,83,0.00,CLR,OVC,0.01,WeatherDisplay:10.37,2013-06-27 18:44:00,
2013-06-27 14:49:00,68.3,62.9,29.83,NE,49,2.8,4.0,83,0.00,CLR,OVC,0.01,WeatherDisplay:10.37,2013-06-27 18:49:00,
2013-06-27 14:54:00,68.4,63.0,29.83,NE,56,1.3,3.5,83,0.00,CLR,OVC,0.01,WeatherDisplay:10.37,2013-06-27 18:54:00,
2013-06-27 14:59:00,68.4,63.0,29.83,East,82,1.5,2.3,83,0.00,CLR,OVC,0.01,WeatherDisplay:10.37,2013-06-27 18:59:00,
2013-06-27 15:04:00,68.1,63.1,29.83,NNE,32,0.0,0.0,84,0.00,CLR,OVC,0.01,WeatherDisplay:10.37,2013-06-27 19:04:00,
2013-06-27 15:09:00,67.9,62.5,29.83,NE,46,1.8,3.5,83,0.00,CLR,OVC,0.01,WeatherDisplay:10.37,2013-06-27 19:09:00,
2013-06-27 15:14:00,67.8,62.4,29.83,ENE,66,2.3,3.5,83,0.00,CLR,OVC,0.01,WeatherDisplay:10.37,2013-06-27 19:14:00,
2013-06-27 15:19:00,67.6,62.3,29.83,East,94,0.5,4.6,83,0.00,CLR,OVC,0.01,WeatherDisplay:10.37,2013-06-27 19:19:00,
2013-06-27 15:24:00,67.6,62.9,29.83,East,94,0.4,0.0,85,0.00,CLR,OVC,0.01,WeatherDisplay:10.37,2013-06-27 19:24:00,
2013-06-27 15:29:00,67.7,63.0,29.83,East,94,1.4,2.3,85,0.00,CLR,OVC,0.01,WeatherDisplay:10.37,2013-06-27 19:29:00,
2013-06-27 15:34:00,67.7,62.7,29.83,East,94,2.4,2.4,84,0.00,CLR,OVC,0.01,WeatherDisplay:10.37,2013-06-27 19:34:00,
2013-06-27 15:39:00,67.3,62.6,29.82,NNE,33,1.9,2.3,85,0.00,CLR,OVC,0.01,WeatherDisplay:10.37,2013-06-27 19:39:00,
2013-06-27 15:44:00,67.4,62.7,29.82,ENE,65,0.8,5.8,85,0.00,CLR,OVC,0.01,WeatherDisplay:10.37,2013-06-27 19:44:00,
2013-06-27 15:49:00,67.3,62.6,29.82,North,355,3.0,3.5,85,0.00,CLR,OVC,0.01,WeatherDisplay:10.37,2013-06-27 19:49:00,
2013-06-27 15:54:00,67.0,62.3,29.82,North,8,1.1,3.5,85,0.00,CLR,OVC,0.01,WeatherDisplay:10.37,2013-06-27 19:54:00,
2013-06-27 15:59:00,66.7,62.4,29.82,NNE,16,1.0,3.5,86,0.02,RA,OVC,0.03,WeatherDisplay:10.37,2013-06-27 19:59:00,
2013-06-27 16:05:00,66.7,63.0,29.82,NNE,17,1.5,2.0,88,0.06,RA,OVC,0.07,WeatherDisplay:10.37,2013-06-27 20:05:00,
2013-06-27 16:10:00,66.9,63.2,29.82,NE,35,2.0,0.0,88,0.05,RA,OVC,0.08,WeatherDisplay:10.37,2013-06-27 20:10:00,
2013-06-27 16:14:00,66.9,62.9,29.82,NE,43,2.4,3.5,87,0.07,RA,OVC,0.08,WeatherDisplay:10.37,2013-06-27 20:14:00,
2013-06-27 16:20:00,66.9,62.9,29.82,NE,44,1.8,3.5,87,0.07,CLR,OVC,0.08,WeatherDisplay:10.37,2013-06-27 20:20:00,
2013-06-27 16:25:00,66.8,63.2,29.82,NE,44,0.0,0.0,88,0.00,CLR,OVC,0.08,WeatherDisplay:10.37,2013-06-27 20:25:00,
2013-06-27 16:29:00,66.8,62.8,29.81,NE,44,1.4,3.5,87,0.07,CLR,OVC,0.08,WeatherDisplay:10.37,2013-06-27 20:29:00,
2013-06-27 16:35:00,66.7,63.0,29.81,NE,48,1.4,2.3,88,0.07,CLR,OVC,0.08,WeatherDisplay:10.37,2013-06-27 20:35:00,
2013-06-27 16:40:00,66.7,62.7,29.81,NE,47,3.0,0.0,87,0.00,CLR,OVC,0.08,WeatherDisplay:10.37,2013-06-27 20:40:00,
2013-06-27 16:45:00,66.6,62.9,29.81,NE,49,0.0,0.0,88,0.00,CLR,OVC,0.08,WeatherDisplay:10.37,2013-06-27 20:45:00,
2013-06-27 16:50:00,66.5,63.1,29.81,NE,49,0.0,0.0,89,0.00,CLR,OVC,0.08,WeatherDisplay:10.37,2013-06-27 20:50:00,
2013-06-27 16:55:00,66.5,63.2,29.81,NE,49,0.0,0.0,89,0.01,RA,OVC,0.09,WeatherDisplay:10.37,2013-06-27 20:55:00,
2013-06-27 16:59:00,66.3,63.0,29.81,NE,49,1.9,3.5,89,0.07,RA,OVC,0.09,WeatherDisplay:10.37,2013-06-27 20:59:00,
2013-06-27 17:04:00,66.3,63.0,29.81,NE,49,0.7,2.3,89,0.03,CLR,OVC,0.09,WeatherDisplay:10.37,2013-06-27 21:04:00,
2013-06-27 17:10:00,66.2,62.8,29.81,NE,50,1.0,0.0,89,0.00,CLR,OVC,0.09,WeatherDisplay:10.37,2013-06-27 21:10:00,
2013-06-27 17:15:00,66.1,62.7,29.80,NE,51,1.0,0.0,89,0.00,CLR,OVC,0.09,WeatherDisplay:10.37,2013-06-27 21:15:00,
2013-06-27 17:20:00,65.9,62.9,29.80,NE,51,1.0,0.0,90,0.00,CLR,OVC,0.09,WeatherDisplay:10.37,2013-06-27 21:20:00,
2013-06-27 17:25:00,65.9,62.8,29.80,NE,51,1.0,0.0,90,0.00,CLR,OVC,0.09,WeatherDisplay:10.37,2013-06-27 21:25:00,
2013-06-27 17:30:00,65.8,62.5,29.80,NE,51,0.6,2.3,89,0.01,CLR,OVC,0.09,WeatherDisplay:10.37,2013-06-27 21:30:00,
2013-06-27 17:34:00,65.7,62.7,29.80,NE,55,2.0,0.0,90,0.00,CLR,OVC,0.09,WeatherDisplay:10.37,2013-06-27 21:34:00,
2013-06-27 17:39:00,65.6,62.6,29.81,ENE,61,1.8,4.6,90,0.01,CLR,OVC,0.09,WeatherDisplay:10.37,2013-06-27 21:39:00,
2013-06-27 17:45:00,65.4,62.4,29.81,ENE,62,0.2,1.2,90,0.01,CLR,OVC,0.09,WeatherDisplay:10.37,2013-06-27 21:45:00,
2013-06-27 17:50:00,65.5,62.8,29.80,ENE,61,1.0,0.0,91,0.00,CLR,OVC,0.09,WeatherDisplay:10.37,2013-06-27 21:50:00,
2013-06-27 17:55:00,65.5,62.8,29.80,ENE,61,1.0,0.0,91,0.00,CLR,OVC,0.09,WeatherDisplay:10.37,2013-06-27 21:55:00,
2013-06-27 18:00:00,65.5,62.8,29.80,ENE,61,0.0,3.5,91,0.00,CLR,OVC,0.09,WeatherDisplay:10.37,2013-06-27 22:00:00,
2013-06-27 18:05:00,65.5,62.8,29.80,ENE,61,0.6,3.5,91,0.00,CLR,OVC,0.09,WeatherDisplay:10.37,2013-06-27 22:05:00,
2013-06-27 18:10:00,65.6,62.9,29.80,ENE,61,1.1,0.0,91,0.00,CLR,OVC,0.09,WeatherDisplay:10.37,2013-06-27 22:10:00,
2013-06-27 18:15:00,65.7,63.3,29.80,ENE,62,0.0,1.2,92,0.00,CLR,OVC,0.09,WeatherDisplay:10.37,2013-06-27 22:15:00,
2013-06-27 18:20:00,65.7,63.0,29.80,ENE,61,1.9,3.5,91,0.00,CLR,OVC,0.09,WeatherDisplay:10.37,2013-06-27 22:20:00,
2013-06-27 18:25:00,65.7,63.0,29.80,ENE,62,0.6,3.5,91,0.00,CLR,OVC,0.09,WeatherDisplay:10.37,2013-06-27 22:25:00,
2013-06-27 18:30:00,65.6,62.9,29.80,ENE,73,1.4,2.3,91,0.00,CLR,OVC,0.09,WeatherDisplay:10.37,2013-06-27 22:30:00,
2013-06-27 18:36:00,65.4,62.7,29.80,ENE,73,0.9,3.5,91,0.00,CLR,OVC,0.09,WeatherDisplay:10.37,2013-06-27 22:36:00,
2013-06-27 18:41:00,65.5,63.1,29.80,ENE,73,1.0,2.3,92,0.00,CLR,OVC,0.09,WeatherDisplay:10.37,2013-06-27 22:41:00,
2013-06-27 18:46:00,65.5,63.1,29.80,ENE,73,0.6,2.3,92,0.00,CLR,OVC,0.09,WeatherDisplay:10.37,2013-06-27 22:46:00,
2013-06-27 18:51:00,65.4,63.0,29.80,ENE,73,1.6,2.3,92,0.00,CLR,OVC,0.09,WeatherDisplay:10.37,2013-06-27 22:51:00,
2013-06-27 18:56:00,65.5,63.1,29.80,ENE,73,0.8,0.0,92,0.00,CLR,OVC,0.09,WeatherDisplay:10.37,2013-06-27 22:56:00,
2013-06-27 19:02:00,65.5,63.1,29.80,ENE,73,0.7,2.3,92,0.00,CLR,OVC,0.09,WeatherDisplay:10.37,2013-06-27 23:02:00,
2013-06-27 19:07:00,65.4,63.0,29.80,ENE,73,0.0,2.3,92,0.00,CLR,OVC,0.09,WeatherDisplay:10.37,2013-06-27 23:07:00,
2013-06-27 19:12:00,65.5,63.1,29.80,ENE,73,0.4,2.3,92,0.00,CLR,OVC,0.09,WeatherDisplay:10.37,2013-06-27 23:12:00,
2013-06-27 19:17:00,65.4,63.0,29.80,ENE,72,3.3,4.6,92,0.00,CLR,OVC,0.09,WeatherDisplay:10.37,2013-06-27 23:17:00,
2013-06-27 19:23:00,65.4,63.0,29.80,ENE,72,0.7,2.3,92,0.00,CLR,OVC,0.09,WeatherDisplay:10.37,2013-06-27 23:23:00,
2013-06-27 19:28:00,65.2,62.8,29.80,ENE,72,0.2,3.5,92,0.00,CLR,OVC,0.09,WeatherDisplay:10.37,2013-06-27 23:28:00,
2013-06-27 19:33:00,65.3,62.9,29.80,ENE,73,0.5,2.3,92,0.00,CLR,OVC,0.09,WeatherDisplay:10.37,2013-06-27 23:33:00,
2013-06-27 19:38:00,65.3,62.9,29.80,ENE,73,1.1,2.3,92,0.00,CLR,OVC,0.09,WeatherDisplay:10.37,2013-06-27 23:38:00,
2013-06-27 19:44:00,65.0,62.9,29.80,ENE,73,0.0,0.0,93,0.00,CLR,OVC,0.09,WeatherDisplay:10.37,2013-06-27 23:44:00,
2013-06-27 19:49:00,65.1,63.0,29.79,ENE,73,0.0,0.0,93,0.00,CLR,OVC,0.09,WeatherDisplay:10.37,2013-06-27 23:49:00,
2013-06-27 19:54:00,65.2,63.1,29.79,ENE,73,0.0,0.0,93,0.00,CLR,OVC,0.09,WeatherDisplay:10.37,2013-06-27 23:54:00,
2013-06-27 19:59:00,65.2,63.1,29.79,ENE,73,0.0,0.0,93,0.00,CLR,OVC,0.09,WeatherDisplay:10.37,2013-06-27 23:59:00,
2013-06-27 20:04:00,65.0,62.9,29.79,ENE,73,0.3,2.3,93,0.00,CLR,OVC,0.09,WeatherDisplay:10.37,2013-06-28 00:04:00,
2013-06-27 20:09:00,64.9,62.8,29.79,ENE,73,0.0,1.2,93,0.00,CLR,OVC,0.09,WeatherDisplay:10.37,2013-06-28 00:09:00,
2013-06-27 20:14:00,65.0,62.9,29.79,ENE,73,0.0,0.0,93,0.00,CLR,OVC,0.09,WeatherDisplay:10.37,2013-06-28 00:14:00,
2013-06-27 20:19:00,64.8,62.7,29.79,ENE,73,0.0,0.0,93,0.00,CLR,OVC,0.09,WeatherDisplay:10.37,2013-06-28 00:19:00,
2013-06-27 20:25:00,64.9,62.5,29.80,ENE,73,0.0,0.0,92,0.00,CLR,OVC,0.09,WeatherDisplay:10.37,2013-06-28 00:25:00,
2013-06-27 20:30:00,64.9,62.8,29.80,ENE,73,0.0,1.2,93,0.00,CLR,OVC,0.09,WeatherDisplay:10.37,2013-06-28 00:30:00,
2013-06-27 20:35:00,64.9,62.8,29.80,ENE,73,0.0,0.0,93,0.00,CLR,OVC,0.09,WeatherDisplay:10.37,2013-06-28 00:35:00,
2013-06-27 20:40:00,64.8,62.7,29.79,ENE,72,0.0,1.2,93,0.01,RA,OVC,0.10,WeatherDisplay:10.37,2013-06-28 00:40:00,
2013-06-27 20:45:00,64.8,63.0,29.79,ENE,73,0.0,0.0,94,0.01,RA,OVC,0.10,WeatherDisplay:10.37,2013-06-28 00:45:00,
2013-06-27 20:50:00,64.9,62.8,29.79,ENE,73,0.1,1.2,93,0.01,CLR,OVC,0.10,WeatherDisplay:10.37,2013-06-28 00:50:00,
2013-06-27 20:55:00,64.7,62.9,29.79,ENE,73,0.0,0.0,94,0.01,CLR,OVC,0.10,WeatherDisplay:10.37,2013-06-28 00:55:00,
2013-06-27 21:01:00,64.7,62.6,29.80,ENE,73,0.0,1.2,93,0.01,CLR,OVC,0.10,WeatherDisplay:10.37,2013-06-28 01:01:00,
2013-06-27 21:06:00,64.8,63.0,29.80,ENE,73,0.0,0.0,94,0.01,CLR,OVC,0.10,WeatherDisplay:10.37,2013-06-28 01:06:00,
2013-06-27 21:11:00,64.7,62.6,29.80,ENE,73,0.2,1.2,93,0.01,CLR,OVC,0.10,WeatherDisplay:10.37,2013-06-28 01:11:00,
2013-06-27 21:16:00,64.6,62.5,29.80,ENE,73,0.1,1.2,93,0.01,CLR,OVC,0.10,WeatherDisplay:10.37,2013-06-28 01:16:00,
2013-06-27 21:21:00,64.6,62.8,29.80,ENE,73,0.6,1.2,94,0.01,CLR,OVC,0.10,WeatherDisplay:10.37,2013-06-28 01:21:00,
2013-06-27 21:27:00,64.6,62.5,29.80,ENE,73,0.0,0.0,93,0.01,CLR,OVC,0.10,WeatherDisplay:10.37,2013-06-28 01:27:00,
2013-06-27 21:32:00,64.8,62.7,29.80,ENE,73,0.0,0.0,93,0.01,CLR,OVC,0.10,WeatherDisplay:10.37,2013-06-28 01:32:00,
2013-06-27 21:37:00,64.8,63.0,29.80,ENE,73,0.1,1.2,94,0.00,CLR,OVC,0.10,WeatherDisplay:10.37,2013-06-28 01:37:00,
2013-06-27 21:42:00,64.8,62.7,29.80,ENE,73,0.0,0.0,93,0.00,CLR,OVC,0.10,WeatherDisplay:10.37,2013-06-28 01:42:00,
2013-06-27 21:47:00,64.6,62.5,29.80,ENE,73,0.0,0.0,93,0.00,CLR,OVC,0.10,WeatherDisplay:10.37,2013-06-28 01:47:00,
2013-06-27 21:52:00,64.5,62.4,29.80,ENE,73,0.1,0.0,93,0.00,CLR,OVC,0.10,WeatherDisplay:10.37,2013-06-28 01:52:00,
2013-06-27 21:57:00,64.6,62.8,29.80,ENE,68,0.2,1.2,94,0.00,CLR,OVC,0.10,WeatherDisplay:10.37,2013-06-28 01:57:00,
2013-06-27 22:03:00,64.6,62.8,29.80,ENE,68,0.1,1.2,94,0.00,CLR,OVC,0.10,WeatherDisplay:10.37,2013-06-28 02:03:00,
2013-06-27 22:08:00,64.6,62.5,29.80,ENE,68,0.0,0.0,93,0.00,CLR,OVC,0.10,WeatherDisplay:10.37,2013-06-28 02:08:00,
2013-06-27 22:13:00,64.6,62.5,29.80,ENE,68,0.2,2.3,93,0.00,CLR,OVC,0.10,WeatherDisplay:10.37,2013-06-28 02:13:00,
2013-06-27 22:18:00,64.7,62.9,29.80,ENE,69,0.5,1.2,94,0.00,CLR,OVC,0.10,WeatherDisplay:10.37,2013-06-28 02:18:00,
2013-06-27 22:23:00,64.4,62.3,29.80,ENE,70,1.8,3.5,93,0.00,CLR,OVC,0.10,WeatherDisplay:10.37,2013-06-28 02:23:00,
2013-06-27 22:28:00,64.4,62.3,29.80,ENE,69,0.6,2.3,93,0.00,CLR,OVC,0.10,WeatherDisplay:10.37,2013-06-28 02:28:00,
2013-06-27 22:33:00,64.3,62.2,29.80,ENE,70,0.2,0.0,93,0.00,CLR,OVC,0.10,WeatherDisplay:10.37,2013-06-28 02:33:00,
2013-06-27 22:39:00,64.3,62.5,29.80,ENE,70,0.0,0.0,94,0.00,CLR,OVC,0.10,WeatherDisplay:10.37,2013-06-28 02:39:00,
2013-06-27 22:44:00,64.3,62.2,29.80,ENE,70,0.0,0.0,93,0.00,CLR,OVC,0.10,WeatherDisplay:10.37,2013-06-28 02:44:00,
2013-06-27 22:49:00,64.2,61.8,29.79,ENE,73,1.2,3.5,92,0.00,CLR,OVC,0.10,WeatherDisplay:10.37,2013-06-28 02:49:00,
2013-06-27 22:54:00,64.2,61.8,29.79,ENE,76,2.0,3.5,92,0.00,CLR,OVC,0.10,WeatherDisplay:10.37,2013-06-28 02:54:00,
2013-06-27 22:59:00,64.0,61.6,29.79,ENE,77,1.6,3.5,92,0.00,CLR,OVC,0.10,WeatherDisplay:10.37,2013-06-28 02:59:00,
2013-06-27 23:04:00,64.1,61.7,29.78,ENE,71,5.0,0.0,92,0.00,CLR,OVC,0.10,WeatherDisplay:10.37,2013-06-28 03:04:00,
2013-06-27 23:09:00,63.9,61.6,29.79,ENE,63,0.0,0.0,92,0.00,CLR,OVC,0.10,WeatherDisplay:10.37,2013-06-28 03:09:00,
2013-06-27 23:14:00,63.8,61.4,29.78,NNE,16,0.0,1.2,92,0.00,CLR,OVC,0.10,WeatherDisplay:10.37,2013-06-28 03:14:00,
2013-06-27 23:20:00,63.7,61.6,29.78,NE,55,2.4,4.6,93,0.00,CLR,OVC,0.10,WeatherDisplay:10.37,2013-06-28 03:20:00,
2013-06-27 23:25:00,63.6,61.5,29.78,ENE,65,1.4,3.5,93,0.00,CLR,OVC,0.10,WeatherDisplay:10.37,2013-06-28 03:25:00,
2013-06-27 23:30:00,63.5,61.7,29.78,ENE,63,0.1,1.2,94,0.00,CLR,OVC,0.10,WeatherDisplay:10.37,2013-06-28 03:30:00,
2013-06-27 23:35:00,63.6,61.5,29.77,East,86,2.1,4.6,93,0.00,CLR,OVC,0.10,WeatherDisplay:10.37,2013-06-28 03:35:00,
2013-06-27 23:40:00,63.4,61.3,29.77,East,85,2.3,7.0,93,0.00,CLR,OVC,0.10,WeatherDisplay:10.37,2013-06-28 03:40:00,
2013-06-27 23:45:00,63.3,61.2,29.77,ENE,59,1.4,4.0,93,0.00,CLR,OVC,0.10,WeatherDisplay:10.37,2013-06-28 03:45:00,
2013-06-27 23:50:00,63.3,61.2,29.77,ESE,109,1.5,5.8,93,0.00,CLR,OVC,0.10,WeatherDisplay:10.37,2013-06-28 03:50:00,
2013-06-27 23:55:00,63.2,61.1,29.77,NNE,31,4.0,6.9,93,0.00,CLR,OVC,0.10,WeatherDisplay:10.37,2013-06-28 03:55:00,